Regional Weather Roundup
Issued by NWS

Home | Current Version | Previous Version | Graphics & Text | Print | Product List | Glossary Off
Versions: 1 2 3 4 5 6 7 8 9 10 11 12 13 14 15 16 17 18 19 20 21 22 23 24 25 26 27 28 29 30 31 32 33 34 35 36 37 38 39 40 41 42 43 44 45 46 47 48 49 50

000
ASUS43 KDMX 240301
RWRIA

WEATHER ROUNDUP FOR IOWA
NATIONAL WEATHER SERVICE DES MOINES IA
1000 PM CDT SUN APR 23 2017

NOTE: "FAIR" INDICATES FEW OR NO CLOUDS BELOW 12,000 FEET WITH NO
SIGNIFICANT WEATHER AND/OR OBSTRUCTIONS TO VISIBILITY.

* - THESE STATIONS ARE NOT NWS STATIONS...THUS NOT UNDER NWS
QUALITY CONTROL.  THEY ALSO DO NOT REPORT WEATHER SUCH
AS PRECIPITATION OR FOG.

IAZ001>003-012>014-020>022-031>034-043>046-240400-
   NORTHWEST IOWA

CITY           SKY/WX    TMP DP  RH WIND       PRES   REMARKS
CARROLL *      CLOUDY    54  34  47 S8        29.92S
CHEROKEE *     CLOUDY    54  33  45 S6        29.88R
DENISON *      CLEAR     59  32  36 S15       29.91F
LE MARS *      CLOUDY    57  32  38 SE5       29.87R
ORANGE CITY *  CLOUDY    55  34  44 S8        29.86S
SHELDON *      PTCLDY    57  30  35 S15       29.84S
SIOUX CITY     PTCLDY    63  27  25 S20       29.86R
SPENCER        CLOUDY    53  33  46 MISG      29.88R
STORM LAKE *   PTCLDY    54  32  43 S14       29.89S
$$

IAZ055>058-069>071-079>083-090>094-240400-
   SOUTHWEST IOWA

CITY           SKY/WX    TMP DP  RH WIND       PRES   REMARKS
ATLANTIC *     CLEAR     57  34  41 S8G15     29.94S
AUDUBON *      PTCLDY    54  34  47 S5        29.94S
CLARINDA *       N/A     48  37  66 CALM      29.98S
COUNCIL BLFS * CLEAR     59  32  36 S12       29.92S
CRESTON *      CLEAR     55  36  47 S8        29.98S
HARLAN  *      CLEAR     55  32  41 S7        29.96R
LAMONI         CLEAR     59  31  34 S7        29.98S
RED OAK *      CLEAR     54  34  47 S3        29.95S
SHENANDOAH *   CLOUDY    54  36  50 S9        29.96R
$$

IAZ047>049-059>061-072>074-084-240400-
   CENTRAL IOWA

CITY           SKY/WX    TMP DP  RH WIND       PRES   REMARKS
AMES           CLOUDY    55  35  47 S7        29.96R
ANKENY *       CLEAR     55  34  44 SE3       29.97S
BOONE *        CLOUDY    59  32  36 S9        29.95S
CHARITON *     CLEAR     55  36  47 S7        29.98F
DES MOINES     PTCLDY    60  33  36 S7        29.96F
GRINNELL*      CLOUDY    55  32  41 S8        30.00S
KNOXVILLE *    CLEAR     59  32  36 S7        29.97S
MARSHALLTOWN   CLOUDY    58  33  39 S7        29.96S
NEWTON *       PTCLDY    52  32  46 S6        29.97S
PELLA *        CLEAR     59  32  35 SE6       29.99F
PERRY *          N/A     55  31  39 SE9       29.95S
$$

IAZ004>006-015-016-023>025-035-036-240400-
   NORTH CENTRAL IOWA

CITY           SKY/WX    TMP DP  RH WIND       PRES   REMARKS
ALGONA *       CLEAR     59  32  36 S16       29.90F
CLARION *      CLOUDY    55  34  44 S13       29.94S
ESTHERVILLE    CLOUDY    50  33  52 S9        29.89R
FORT DODGE *   CLOUDY    61  28  29 S10       29.93F
MASON CITY     CLEAR     49  34  56 S8        29.95R
FOREST CITY *    N/A     54  32  43 S10       29.92F
WEBSTER CITY * CLOUDY    55  34  44 S10       29.92F
IOWA FALLS *     N/A     55  36  48 S8        29.97R
$$

IAZ007>011-017>019-026>030-037>042-050>054-066-240400-
   NORTHEAST IOWA

CITY           SKY/WX    TMP DP  RH WIND       PRES   REMARKS
CEDAR RAPIDS   MOCLDY    56  35  45 S3        29.99R
CHARLES CITY * CLEAR     55  32  41 S9        29.96S
DECORAH *      PTCLDY    59  32  36 S7        29.96R
DUBUQUE        CLOUDY    56  35  45 S3        30.01R
MONTICELLO *   PTCLDY    54  36  50 S5        30.00R
OELWEIN *      CLOUDY    54  36  50 S9        29.99R
WATERLOO       CLOUDY    57  31  37 S8        29.97R
$$

IAZ064-065-067-068-078-240400-
   EAST CENTRAL IOWA

CITY           SKY/WX    TMP DP  RH WIND       PRES   REMARKS
DAVENPORT      CLEAR     57  32  38 S5        30.02R
IOWA CITY      CLEAR     56  36  47 CALM      30.01R
MUSCATINE *    CLEAR     52  34  50 CALM      30.02R
QUAD CITIES    CLEAR     51  37  58 E3        30.01S
$$

IAZ062-063-075>077-085>089-095>099-240400-
   SOUTHEAST IOWA

CITY           SKY/WX    TMP DP  RH WIND       PRES   REMARKS
BURLINGTON     PTCLDY    56  34  43 CALM      30.01R
FAIRFIELD *    PTCLDY    54  34  47 SE6       30.01R
FORT MADISON * CLEAR     57  28  33 CALM      30.02S
KEOKUK *       CLEAR     54  34  47 E3        30.01S
OSKALOOSA *      N/A     53  32  44 S8        30.00F
CENTERVILLE *    N/A     57  32  38 CALM      30.01S
OTTUMWA        CLEAR     56  32  40 SE5       30.00R
WASHINGTON *   CLEAR     57  30  35 S6        30.03R
$$

ABBREVIATIONS USED IN REMARKS
   TC - TEMPERATURES IN CELSIUS
  WCI - WIND CHILL INDEX
   HX - HEAT INDEX
  VSB - VISIBILITY
$$




USA.gov is the U.S. government's official web portal to all federal, state and local government web resources and services.